This is the latest recevied weather packets stored in our database for station/object IZ0DPP-10. If no packets are shown the sender has not sent any weather packets the latest 10 day(s).
| Time | Temp. | Humidity | Pressure | Rain* | Wind** | Luminosity | Snow |
|---|---|---|---|---|---|---|---|
| 1777336239 | 15° C | 100% | 1019.1 hPa | - | - | - | - |
| 1777335339 | 15.56° C | 100% | 1019.2 hPa | - | - | - | - |
| 1777334439 | 15° C | 100% | 1019.3 hPa | - | - | - | - |
| 1777333539 | 15° C | 100% | 1019.3 hPa | - | - | - | - |
| 1777332639 | 15.56° C | 100% | 1019.3 hPa | - | - | - | - |
| 1777331739 | 15.56° C | 100% | 1019.3 hPa | - | - | - | - |
| 1777330839 | 16.11° C | 100% | 1019.3 hPa | - | - | - | - |
| 1777329939 | 16.11° C | 100% | 1019.3 hPa | - | - | - | - |
| 1777329039 | 16.11° C | 100% | 1019.3 hPa | - | - | - | - |
| 1777328139 | 16.67° C | 100% | 1019.3 hPa | - | - | - | - |
| 1777327238 | 16.67° C | 100% | 1019.3 hPa | - | - | - | - |
| 1777326338 | 16.11° C | 100% | 1019.3 hPa | - | - | - | - |
| 1777325441 | 17.22° C | 100% | 1019.4 hPa | - | - | - | - |
| 1777324541 | 16.67° C | 100% | 1019.4 hPa | - | - | - | - |
| 1777323641 | 17.78° C | 100% | 1019.5 hPa | - | - | - | - |
| 1777322741 | 17.78° C | 100% | 1019.5 hPa | - | - | - | - |
| 1777321841 | 17.78° C | 100% | 1019.6 hPa | - | - | - | - |
| 1777320941 | 18.33° C | 100% | 1019.5 hPa | - | - | - | - |
| 1777320041 | 18.89° C | 100% | 1019.5 hPa | - | - | - | - |
| 1777319141 | 19.44° C | 100% | 1019.4 hPa | - | - | - | - |
| 1777318240 | 18.89° C | 100% | 1019.2 hPa | - | - | - | - |
| 1777317340 | 18.89° C | 100% | 1019.1 hPa | - | - | - | - |
| 1777316440 | 20° C | 100% | 1018.7 hPa | - | - | - | - |
| 1777315543 | 22.22° C | 100% | 1018.3 hPa | - | - | - | - |
| 1777314640 | 21.67° C | 100% | 1018.2 hPa | - | - | - | - |
* Rain since midnight (hover to see other rain measurements)
** Current wind speed in m/s (hover to see current wind gust speed)